Location: Roy
(47.3334°N, 108.9587°W)
Time: 06:58:24
(UTC+00:00)

N. Korean satellite - Pass Details

Date: 29 January 2022
Orbit: 438 x 478 km, 97.3° (Epoch: 21 May)

Event Time Altitude Azimuth Distance (km) Brightness Sun altitude
Rises 13:43:54 0° 357° (N) 2,637 10.1 -10.6°
Reaches altitude 10° 13:46:32 10° 337° (NNW) 1,745 9.0 -10.1°
Maximum altitude 13:49:01 17° 296° (WNW) 1,351 8.2 -9.7°
Drops below altitude 10° 13:51:29 10° 255° (WSW) 1,729 8.8 -9.3°
Sets 13:54:06 0° 234° (SW) 2,601 9.9 -8.9°
